Regional Weather Roundup
Issued by NWS Sioux Falls, SD

Home | Current Version | Previous Version | Text Only | Print | Product List | Glossary On
Versions: 1 2 3 4 5 6 7 8 9 10 11 12 13 14 15 16 17 18 19 20 21 22 23 24 25 26 27 28 29 30 31 32 33 34 35 36 37 38 39 40 41 42 43 44 45 46 47 48 49 50
258
ASUS43 KFSD 112310
RWRFSD

WEATHER ROUNDUP FOR SE SOUTH DAKOTA/SW MINNESOTA/NW IOWA
NATIONAL WEATHER SERVICE SIOUX FALLS SD
500 PM CST THU FEB 11 2016

NOTE: "FAIR" INDICATES FEW OR NO CLOUDS BELOW 12,000 FEET WITH NO
SIGNIFICANT WEATHER AND OR OBSTRUCTIONS TO VISIBILITY.


SDZ038>040-050-052>070-120000-
SOUTHEAST SOUTH DAKOTA

CITY           SKY/WX    TMP DP  RH WIND       PRES   REMARKS
BROOKINGS      LGT SNOW  17  13  84 S6        30.14R FOG     WCI   9
CHAMBERLAIN    CLOUDY    26  24  92 NE7       30.11R WCI  18
HURON          LGT SNOW  23  19  85 SE3       30.17R FOG
MADISON        FLURRIES  16  16 100 S6        30.14R WCI   7
MITCHELL       LGT SNOW  21  18  88 SE7       30.17R FOG     WCI  12
SIOUX FALLS    LGT SNOW  18  13  80 SE3       30.16R VSB 1
WINNER         CLOUDY    33  26  75 NE12      30.07R WCI  24
YANKTON        CLOUDY    21  18  86 SE6       30.15R WCI  14
$$

MNZ071-072-080-081-089-090-097-098-120000-
SOUTHWEST MINNESOTA

CITY           SKY/WX    TMP DP  RH WIND       PRES   REMARKS
FAIRMONT       CLOUDY    12   5  73 S10       30.20F WCI  -1
JACKSON        LGT SNOW  16   9  73 S9        30.18S WCI   4
LUVERNE        FLURRIES  18  14  86 S6        30.18R WCI   9
MARSHALL       MIX PCPN  18  13  80 SW7       30.18S WCI   9
MONTEVIDEO     FLURRIES  16  10  79 SW6       30.21R WCI   7
PIPESTONE      FLURRIES  18   9  68 S7        30.14R WCI   8
REDWOOD FALLS  CLOUDY    16  11  80 S8        30.20S HAZE    WCI   5
TRACY          LGT SNOW  18  14  84 S6        30.17F WCI   9
WINDOM         LGT SNOW  16  10  79 S8        30.17S WCI   5
WORTHINGTON    CLOUDY    14   9  79 S8        30.16S WCI   3
$$

IAZ001>003-012>014-020>022-031-032-NEZ013-014-SDZ071-120000-
NORTHWEST IOWA

CITY           SKY/WX    TMP DP  RH WIND       PRES   REMARKS
CHEROKEE       LGT SNOW  15  13  90 S7        30.19S WCI   5
DENISON        CLOUDY    18  14  86 SE7       30.18S WCI   8
ESTHERVILLE    LGT SNOW  12   8  84 SE10      30.20R FOG     WCI  -1
LE MARS        LGT SNOW  18  18 100 SE8       30.19R WCI   7
ORANGE CITY    LGT SNOW  16  16 100 SE8       30.16R VSB 1   WCI   5
SHELDON        CLOUDY    16  12  86 SE9       30.16R FOG     WCI   4
SIOUX CITY     CLOUDY    20  12  71 SE9       30.19R WCI   9
SPENCER        LGT SNOW  14   9  80 SE9       30.19R WCI   2
STORM LAKE     LGT SNOW  14  12  92 SE10      30.17F WCI   1
$$

ABBREVIATIONS USED IN REMARKS
   TC - TEMPERATURE IN CELSIUS
  WCI - WIND CHILL INDEX
   HX - HEAT INDEX
  VSB - VISIBILITY





USA.gov is the U.S. government's official web portal to all federal, state and local government web resources and services.